OPS 4682 DEB, 38446

Orbit data source: Space-Track

OPS 4682 DEB, 38446 is space debris in LEO originally from a launch on Sat, 03 Apr 1965 UTC launched from the Air Force Western Test Range (AFWTR). Debris objects in space refer to the collection of defunct objects orbiting the Earth. Examples of debris include non-operational satellites, rocket bodies, and fragments generated from explosions, collisions, or faulty payload assembly.

Loading next visibility...
Identifier
38446, 1965-027FB
Orbit
LEO
Country
Flag of USUS
Related business
Manufacturer
Unknown
Mission
Spacecraft
Bus & Motor
Unknown
Mass
Unknown
Launch date (UTC)
1965-04-03 (61 years ago)
Launch vehicle
Unknown
Launch site
Air Force Western Test Range (AFWTR)
Object type
Payload
Rocket body
Debris
Shape & HBR
Unknown shape, 0.1 m
Radar Cross Section
Small (<0.1 m²)

Expand to show TLE details & history
Last TLE update: 2 weeks ago

TLE from 2 weeks ago
0 OPS 4682 DEB
1 38446U 65027FB  26090.57097264  .00000880  00000-0  28428-2 0  9994
2 38446  90.2707  25.9340 0012199 253.2155 106.7629 13.01372222577182
Epoch: 2026-03-31T13:42Z
TLE epoch observation values (Epoch: 2026-03-31T13:42:12.036Z)
Latitude
-0.00008°
Longitude
-8.5624°
Altitude
1,262.298 km
Speed
7.223 km/s
True Right ascension
01h 43m 44s
True Declination
0° 00' 00"
Sunlit
Object was in daylight at epoch
Visualization orbit readout
Latitude
Unknown
Longitude
Unknown
Altitude
Unknown
Speed
Unknown
Apparent Right ascension
Unknown
Apparent Declination
Unknown
Sunlit
N/A
Visualization observer readout
Local Sidereal Time
22:59:09
Azimuth
Unknown
Elevation
Unknown
Doppler factor
Unknown
Orbital elements
Apogee altitude
1,263.15 km
Perigee altitude
1,244.53 km
Semi-major axis
7,631.977 km
Eccentricity
0.00122
Inclination
90.2707°
RAAN
25.934°
Arg. of periapsis
253.2155°
True anomaly
106.89669°
Mean anomaly
106.7629°
Eccentric anomaly
106.8298°
Mean motion
3.25527 °/min
Orbital period
110.59 mins
BSTAR
0.0028428
Loading maneuver chart data...
Computing Atmospheric mass density...
Loading historical data...
Loading historical data...
Loading historical data...
Loading historical data...
Loading historical data...
Loading historical data...
Loading historical data...

Documentation

Showing up to 5 results
|